Location: Ethel Rock
(53.4667°N, 4.5667°W)
Time: 05:34:27
(UTC+00:00)

USA 290 - Pass Details

Date: 24 October 2020
Orbit: 395 x 418 km, 73.6° (Epoch: 28 October)

Event Time Altitude Azimuth Distance (km) Brightness Sun altitude
Rises 05:47:42 0° 186° (S) 2,307 6.0 -11.7°
Reaches altitude 10° 05:49:48 10° 178° (S) 1,457 5.1 -11.4°
Maximum altitude 05:52:46 36° 109° (ESE) 661 4.0 -11.0°
Drops below altitude 10° 05:55:47 10° 41° (NE) 1,482 5.5 -10.5°
Sets 05:57:56 0° 33° (NNE) 2,353 6.4 -10.2°
